GW2344 Weather Reports


time (UTC)temp
C
wind
direction
speed
KPH
gust
KPH
rain 1hr
cm
rain 24hr
cm
rain mn
cm
humidity
%
barometer
mb
20260505125000 3 61 1.6 1.6 0.00 0.00 0.00 67 1014.7
20260505124457 3 64 0.0 1.6 0.00 0.00 0.00 67 1014.8
20260505123953 3 65 0.0 0.0 0.00 0.00 0.00 69 1014.9
20260505123450 3 64 0.0 1.6 0.00 0.00 0.00 66 1014.9
20260505122946 3 63 0.0 1.6 0.00 0.00 0.00 65 1014.8
20260505122443 4 60 1.6 3.2 0.00 0.00 0.00 64 1014.8
20260505121940 4 65 0.0 1.6 0.00 0.00 0.00 63 1014.9
20260505121437 4 53 3.2 4.8 0.00 0.00 0.00 62 1014.9
20260505120933 5 56 1.6 1.6 0.00 0.00 0.00 62 1014.7
20260505120430 5 56 1.6 1.6 0.00 0.00 0.00 61 1014.8
20260505115928 5 59 1.6 1.6 0.00 0.00 0.00 61 1014.9
20260505115425 5 84 1.6 1.6 0.00 0.00 0.00 61 1014.8
20260505114923 4 66 0.0 1.6 0.00 0.00 0.00 61 1015.1
20260505114419 4 58 0.0 1.6 0.00 0.00 0.00 63 1015.2
20260505113915 5 62 0.0 0.0 0.00 0.00 0.00 60 1014.9
20260505113413 5 63 3.2 4.8 0.00 0.00 0.00 57 1014.8
20260505112908 5 63 1.6 1.6 0.00 0.00 0.00 57 1015.1
20260505112406 6 61 0.0 1.6 0.00 0.00 0.00 56 1014.8
20260505111902 6 58 1.6 3.2 0.00 0.00 0.00 56 1015.1
20260505111357 6 55 3.2 4.8 0.00 0.00 0.00 56 1014.9
20260505110853 6 59 4.8 4.8 0.00 0.00 0.00 56 1014.8
20260505110351 6 51 3.2 3.2 0.00 0.00 0.00 56 1014.8
20260505101821 5 61 1.6 1.6 0.00 0.00 0.00 59 1014.8
20260505101316 5 62 1.6 1.6 0.00 0.00 0.00 59 1014.9
20260505100812 5 61 3.2 3.2 0.00 0.00 0.00 58 1014.8
20260505100309 5 53 4.8 4.8 0.00 0.00 0.00 58 1014.5
20260505095805 5 68 1.6 1.6 0.00 0.00 0.00 58 1014.7
20260505095304 6 61 3.2 3.2 0.00 0.00 0.00 57 1014.8
20260505094758 6 54 3.2 3.2 0.00 0.00 0.00 57 1014.4
20260505094255 6 58 1.6 1.6 0.00 0.00 0.00 56 1014.7
20260505093750 6 65 3.2 3.2 0.00 0.00 0.00 55 1014.3
20260505093248 6 64 0.0 1.6 0.00 0.00 0.00 56 1014.5
20260505092745 6 61 1.6 1.6 0.00 0.00 0.00 55 1014.5
20260505092244 6 45 0.0 1.6 0.00 0.00 0.00 54 1014.5
20260505091740 6 67 1.6 1.6 0.00 0.00 0.00 53 1014.6
20260505091239 7 63 1.6 1.6 0.00 0.00 0.00 53 1014.6
20260505090735 7 69 1.6 1.6 0.00 0.00 0.00 52 1014.4
20260505090234 7 61 1.6 3.2 0.00 0.00 0.00 50 1014.6
20260505085731 7 58 3.2 3.2 0.00 0.00 0.00 50 1014.4
20260505085229 7 59 1.6 3.2 0.00 0.00 0.00 49 1014.5
20260505084726 8 61 3.2 4.8 0.00 0.00 0.00 49 1014.5
20260505084225 8 63 4.8 8.0 0.00 0.00 0.00 47 1014.4
20260505083722 8 51 3.2 3.2 0.00 0.00 0.00 47 1014.8
20260505083218 8 50 1.6 3.2 0.00 0.00 0.00 47 1014.6
20260505082714 8 55 4.8 4.8 0.00 0.00 0.00 46 1014.6
20260505082212 8 46 4.8 8.0 0.00 0.00 0.00 46 1014.7
20260505081707 8 40 8.0 11.3 0.00 0.00 0.00 45 1014.9
20260505081205 8 75 4.8 8.0 0.00 0.00 0.00 45 1014.8
20260505080702 8 340 4.8 8.0 0.00 0.00 0.00 46 1014.5
20260505080158 9 54 4.8 8.0 0.00 0.00 0.00 46 1014.8
20260505075654 9 49 6.4 8.0 0.00 0.00 0.00 46 1014.7
20260505075151 9 56 6.4 8.0 0.00 0.00 0.00 45 1014.8
20260505074648 9 37 4.8 4.8 0.00 0.00 0.00 45 1014.7
20260505074145 9 68 6.4 8.0 0.00 0.00 0.00 46 1014.6
20260505073643 10 32 6.4 8.0 0.00 0.00 0.00 45 1014.9
20260505073141 10 58 4.8 8.0 0.00 0.00 0.00 45 1014.8
20260505072636 10 53 4.8 8.0 0.00 0.00 0.00 45 1014.7
20260505072133 10 89 4.8 8.0 0.00 0.00 0.00 44 1014.6
20260505071628 10 26 11.3 16.1 0.00 0.00 0.00 44 1014.5
20260505071126 10 31 4.8 9.7 0.00 0.00 0.00 44 1014.5
20260505070623 10 50 4.8 4.8 0.00 0.00 0.00 45 1014.7
20260505070119 10 74 6.4 8.0 0.00 0.00 0.00 45 1014.7
20260505065615 10 27 11.3 12.9 0.00 0.00 0.00 44 1014.5
20260505065112 10 27 6.4 11.3 0.00 0.00 0.00 45 1014.7
20260505064609 10 74 4.8 8.0 0.00 0.00 0.00 45 1014.8
20260505064108 10 59 6.4 8.0 0.00 0.00 0.00 46 1014.6
20260505063604 10 55 4.8 8.0 0.00 0.00 0.00 46 1014.7
20260505063100 10 54 4.8 4.8 0.00 0.00 0.00 46 1014.5
20260505062557 10 48 4.8 8.0 0.00 0.00 0.00 46 1014.5
20260505062054 10 341 9.7 12.9 0.00 0.00 0.00 46 1014.3
20260505061552 10 29 6.4 12.9 0.00 0.00 0.00 45 1014.3
20260505061049 10 37 8.0 9.7 0.00 0.00 0.00 45 1014.4
20260505060547 10 67 4.8 8.0 0.00 0.00 0.00 46 1014.0
20260505060044 11 36 6.4 8.0 0.00 0.00 0.00 46 1014.2
20260505055538 11 33 6.4 11.3 0.00 0.00 0.00 46 1014.1
20260505055035 10 47 3.2 4.8 0.00 0.00 0.00 46 1014.0
20260505054533 10 64 1.6 3.2 0.00 0.00 0.00 47 1013.7
20260505054031 10 61 8.0 9.7 0.00 0.00 0.00 46 1013.7
20260505053528 10 5 4.8 9.7 0.00 0.00 0.00 46 1014.0
20260505053024 11 61 9.7 14.5 0.00 0.00 0.00 46 1014.0
20260505052521 11 61 4.8 9.7 0.00 0.00 0.00 46 1013.9
20260505052019 11 2 11.3 14.5 0.00 0.00 0.00 46 1013.5
20260505051515 11 60 4.8 8.0 0.00 0.00 0.00 46 1013.5
20260505051014 11 38 4.8 8.0 0.00 0.00 0.00 47 1013.6
20260505050511 11 55 4.8 8.0 0.00 0.00 0.00 47 1013.6
20260505041439 12 60 1.6 1.6 0.00 0.00 0.00 48 1013.2
20260505040936 12 58 1.6 1.6 0.00 0.00 0.00 48 1013.2
20260505040434 12 62 1.6 1.6 0.00 0.00 0.00 48 1013.1
20260505035930 12 55 0.0 1.6 0.00 0.00 0.00 48 1013.1
20260505035426 12 57 1.6 1.6 0.00 0.00 0.00 47 1013.1
20260505034924 12 62 3.2 3.2 0.00 0.00 0.00 47 1012.9
20260505034420 12 50 3.2 3.2 0.00 0.00 0.00 46 1013.0
20260505033917 12 60 8.0 9.7 0.00 0.00 0.00 46 1012.9
20260505033414 12 58 4.8 4.8 0.00 0.00 0.00 46 1012.6
20260505032912 12 51 6.4 8.0 0.00 0.00 0.00 47 1012.9
20260505032409 13 41 4.8 8.0 0.00 0.00 0.00 46 1012.6
20260505031905 13 51 4.8 4.8 0.00 0.00 0.00 45 1012.4
20260505031402 13 58 3.2 4.8 0.00 0.00 0.00 45 1012.5
20260505030859 13 71 6.4 8.0 0.00 0.00 0.00 43 1012.3
20260505030355 13 50 9.7 11.3 0.00 0.00 0.00 43 1012.4
20260505025851 14 47 4.8 8.0 0.00 0.00 0.00 43 1012.3
20260505025349 14 93 6.4 8.0 0.00 0.00 0.00 42 1012.0
20260505024847 14 47 4.8 4.8 0.00 0.00 0.00 43 1012.2
20260505024345 14 42 6.4 9.7 0.00 0.00 0.00 42 1012.1
20260505023841 14 55 6.4 8.0 0.00 0.00 0.00 42 1012.0
20260505023338 15 54 4.8 4.8 0.00 0.00 0.00 42 1011.9
20260505022836 15 27 3.2 4.8 0.00 0.00 0.00 42 1011.8
20260505022332 15 48 4.8 8.0 0.00 0.00 0.00 41 1011.7
20260505021830 15 44 3.2 4.8 0.00 0.00 0.00 41 1011.8
20260505021326 15 51 4.8 4.8 0.00 0.00 0.00 41 1011.5
20260505020822 15 67 3.2 3.2 0.00 0.00 0.00 41 1011.5
20260505020318 15 12 4.8 4.8 0.00 0.00 0.00 41 1011.7
20260505015815 15 56 4.8 4.8 0.00 0.00 0.00 40 1011.3
20260505015312 16 55 4.8 4.8 0.00 0.00 0.00 40 1011.2
20260505014809 16 41 3.2 3.2 0.00 0.00 0.00 39 1011.1
20260505014307 16 50 8.0 9.7 0.00 0.00 0.00 38 1011.0
20260505013802 17 60 1.6 3.2 0.00 0.00 0.00 39 1011.1
20260505013300 17 74 1.6 3.2 0.00 0.00 0.00 38 1011.0
20260505012758 17 56 8.0 11.3 0.00 0.00 0.00 38 1011.1
20260505012255 17 62 3.2 4.8 0.00 0.00 0.00 38 1011.0
20260505011751 17 36 4.8 8.0 0.00 0.00 0.00 37 1010.9
20260505011248 17 52 1.6 1.6 0.00 0.00 0.00 41 1010.8
20260505010744 17 55 1.6 1.6 0.00 0.00 0.00 41 1010.7
20260505010240 17 53 3.2 3.2 0.00 0.00 0.00 40 1010.9
20260505005737 17 66 1.6 1.6 0.00 0.00 0.00 40 1010.7
20260505005234 17 65 3.2 3.2 0.00 0.00 0.00 41 1010.9
20260505004731 17 55 0.0 0.0 0.00 0.00 0.00 41 1010.7
20260505004227 17 55 4.8 9.7 0.00 0.00 0.00 39 1010.9
20260505003725 17 60 1.6 1.6 0.00 0.00 0.00 39 1010.8
20260505003222 17 52 1.6 3.2 0.00 0.00 0.00 40 1010.8
20260505002718 17 61 6.4 11.3 0.00 0.00 0.00 39 1010.9
20260505002216 17 62 1.6 1.6 0.00 0.00 0.00 40 1010.8
20260505001713 17 41 3.2 3.2 0.00 0.00 0.00 39 1011.1
20260505001211 18 66 4.8 9.7 0.00 0.00 0.00 38 1011.0
20260505000708 18 57 6.4 9.7 0.00 0.00 0.00 38 1010.9
20260505000206 18 44 3.2 4.8 0.00 0.00 0.00 38 1010.9
20260504235702 19 57 4.8 4.8 0.00 0.00 0.00 39 1010.6
20260504235158 19 52 4.8 4.8 0.00 0.00 0.00 36 1010.7
20260504234656 20 60 4.8 4.8 0.00 0.00 0.00 35 1010.6
20260504234152 18 24 4.8 14.5 0.00 0.00 0.00 38 1010.4
20260504233648 18 50 11.3 17.7 0.00 0.00 0.00 38 1010.6
20260504233144 19 44 1.6 1.6 0.00 0.00 0.00 37 1010.6
20260504232642 20 52 6.4 9.7 0.00 0.00 0.00 38 1010.6
20260504232139 20 59 4.8 4.8 0.00 0.00 0.00 36 1010.7
20260504231636 20 64 1.6 1.6 0.00 0.00 0.00 39 1010.4
20260504231132 20 62 0.0 1.6 0.00 0.00 0.00 37 1010.4
20260504230628 20 66 0.0 1.6 0.00 0.00 0.00 37 1010.6
20260504230127 20 24 4.8 4.8 0.00 0.00 0.00 39 1010.3
20260504225625 20 52 4.8 8.0 0.00 0.00 0.00 38 1010.0
20260504225121 20 74 1.6 3.2 0.00 0.00 0.00 34 1010.6
20260504224618 21 52 3.2 3.2 0.00 0.00 0.00 34 1010.4
20260504224115 21 57 1.6 3.2 0.00 0.00 0.00 32 1010.2
20260504223612 21 50 3.2 3.2 0.00 0.00 0.00 34 1010.6
20260504223107 21 222 3.2 4.8 0.00 0.00 0.00 34 1010.3
20260504222605 21 60 3.2 3.2 0.00 0.00 0.00 33 1010.3
20260504222101 21 57 4.8 4.8 0.00 0.00 0.00 33 1010.2
20260504221559 21 64 4.8 8.0 0.00 0.00 0.00 34 1010.6
20260504221055 21 63 4.8 4.8 0.00 0.00 0.00 35 1010.3
20260504220552 21 51 6.4 8.0 0.00 0.00 0.00 34 1010.4
20260504220049 21 47 3.2 3.2 0.00 0.00 0.00 34 1010.3
20260504215546 21 55 0.0 1.6 0.00 0.00 0.00 33 1010.3
20260504215043 22 42 3.2 3.2 0.00 0.00 0.00 33 1010.4
20260504214539 21 60 1.6 1.6 0.00 0.00 0.00 34 1010.4
20260504214035 21 337 3.2 4.8 0.00 0.00 0.00 34 1010.7
20260504213532 21 34 9.7 12.9 0.00 0.00 0.00 33 1010.8
20260504213029 21 57 3.2 4.8 0.00 0.00 0.00 34 1010.4
20260504212525 21 50 1.6 1.6 0.00 0.00 0.00 33 1010.6
20260504212023 21 34 3.2 3.2 0.00 0.00 0.00 34 1010.7
20260504211519 21 54 1.6 1.6 0.00 0.00 0.00 33 1010.6
20260504211017 21 69 3.2 3.2 0.00 0.00 0.00 35 1010.7
20260504210513 21 58 4.8 8.0 0.00 0.00 0.00 35 1010.6
20260504210010 21 59 3.2 4.8 0.00 0.00 0.00 34 1010.8
20260504205508 21 59 1.6 3.2 0.00 0.00 0.00 32 1011.0
20260504205006 20 39 6.4 8.0 0.00 0.00 0.00 36 1010.8
20260504204504 21 52 6.4 8.0 0.00 0.00 0.00 33 1011.1
20260504204002 21 31 4.8 4.8 0.00 0.00 0.00 34 1010.8
20260504203500 21 52 1.6 1.6 0.00 0.00 0.00 32 1011.2
20260504202956 20 41 3.2 4.8 0.00 0.00 0.00 38 1010.9
20260504202452 21 9 4.8 4.8 0.00 0.00 0.00 34 1011.0
20260504201949 20 7 8.0 11.3 0.00 0.00 0.00 34 1011.2
20260504201446 21 160 3.2 3.2 0.00 0.00 0.00 34 1011.0
20260504200944 21 65 3.2 4.8 0.00 0.00 0.00 32 1011.0
20260504200441 20 350 4.8 4.8 0.00 0.00 0.00 36 1010.8
20260504195937 20 47 3.2 3.2 0.00 0.00 0.00 34 1011.0
20260504195433 21 62 6.4 8.0 0.00 0.00 0.00 34 1011.0
20260504194930 20 38 4.8 8.0 0.00 0.00 0.00 35 1011.0
20260504194426 20 49 3.2 3.2 0.00 0.00 0.00 36 1011.2
20260504193922 20 69 1.6 3.2 0.00 0.00 0.00 35 1011.1
20260504193419 20 41 8.0 11.3 0.00 0.00 0.00 33 1011.3
20260504192918 20 31 4.8 8.0 0.00 0.00 0.00 35 1011.2
20260504192415 20 46 3.2 3.2 0.00 0.00 0.00 33 1011.3
20260504191914 20 49 4.8 4.8 0.00 0.00 0.00 37 1011.4
20260504191411 20 31 3.2 4.8 0.00 0.00 0.00 37 1011.4
20260504190906 20 65 4.8 4.8 0.00 0.00 0.00 34 1011.5
20260504190402 20 30 4.8 8.0 0.00 0.00 0.00 37 1011.5
20260504185859 20 43 1.6 3.2 0.00 0.00 0.00 37 1011.7
20260504185356 19 43 4.8 4.8 0.00 0.00 0.00 36 1011.7
20260504184852 19 24 3.2 3.2 0.00 0.00 0.00 36 1012.0
20260504184348 19 45 3.2 3.2 0.00 0.00 0.00 34 1011.9
20260504183844 20 70 3.2 3.2 0.00 0.00 0.00 34 1012.1
20260504183342 19 24 1.6 3.2 0.00 0.00 0.00 35 1012.0
20260504182839 19 50 8.0 12.9 0.00 0.00 0.00 36 1012.1
20260504182337 18 37 1.6 1.6 0.00 0.00 0.00 36 1012.0
20260504181833 18 62 6.4 9.7 0.00 0.00 0.00 35 1012.2
20260504181331 18 61 4.8 4.8 0.00 0.00 0.00 40 1012.3
20260504180830 18 71 3.2 4.8 0.00 0.00 0.00 40 1012.2
20260504180328 18 66 4.8 8.0 0.00 0.00 0.00 38 1012.1
20260504175825 17 57 6.4 8.0 0.00 0.00 0.00 39 1012.3
20260504175322 17 45 4.8 9.7 0.00 0.00 0.00 39 1012.4
20260504174820 17 59 4.8 8.0 0.00 0.00 0.00 38 1012.4
20260504174317 17 50 6.4 8.0 0.00 0.00 0.00 39 1012.2
20260504173814 17 29 9.7 12.9 0.00 0.00 0.00 39 1012.3
20260504173311 17 61 4.8 9.7 0.00 0.00 0.00 39 1012.4
20260504172808 17 65 8.0 11.3 0.00 0.00 0.00 38 1012.4
20260504172305 17 56 9.7 12.9 0.00 0.00 0.00 39 1012.6
20260504171800 16 25 9.7 12.9 0.00 0.00 0.00 39 1012.4
20260504171258 16 61 4.8 8.0 0.00 0.00 0.00 41 1012.6
20260504170755 17 22 9.7 14.5 0.00 0.00 0.00 39 1012.3
20260504170252 16 62 8.0 12.9 0.00 0.00 0.00 41 1012.8
20260504160210 15 37 8.0 11.3 0.00 0.00 0.00 43 1013.2
20260504151138 13 43 6.4 8.0 0.00 0.00 0.00 44 1013.5
20260504150635 13 63 9.7 12.9 0.00 0.00 0.00 43 1013.1
20260504150132 13 40 8.0 9.7 0.00 0.00 0.00 43 1013.1
20260504141101 12 21 8.0 11.3 0.00 0.00 0.00 47 1012.8
20260504140557 12 42 6.4 9.7 0.00 0.00 0.00 47 1012.6
20260504130521 10 55 3.2 3.2 0.00 0.00 0.00 55 1012.1